STARLINK-1247 (45236 NORAD) Tracking and Keplerian Element Data

This shows tracking and keplerian element data for the satellite.

Feedback or suggestion? Click here.




ElementValue
Catalog45236
NameSTARLINK-1247
Epoch Orbit751
Epoch Day94.25001157
Epoch Year2020
RAAN42.8189
Inclination53.0001
Eccentricity0.0001285
Argument of Perigee56.8071
Mean Anonmoly91.1998
Mean Motion15.62720132
Decay Rate0.00040655
L11 45236U 20012BL 20094.25001157 .00040655 00000-0 44817-3 0 9998
L22 45236 53.0001 42.8189 0001285 56.8071 91.1998 15.62720132 7515

Live tracking and technical data element details for STARLINK-1247 (NORAD 45236). STARLINK-1247 can be tracked NOW for your location showing map with azimuth and elevation plus other details from your city location.

Track the satellite on the map from your city or location and see movement details for azimuth, elevation, latitude, longitude, range, height, and movement on the map or in text.







IsCatalogInMostPopularTable: catalog: 45236, numindb: 10
Update: records affected: 1



GetName: 45236 STARLINK-1247

Hit Count: updated at: Tue, 07 Apr 2020 16:15:10 GMT